Weather History for Erie, CO

Change the Weather History Date:

Saturday, February 9, 2013

  Actual Average (KBJC) Record (KBJC)
Temperature  
Mean Temperature 26 °F -  
Max Temperature 37 °F 43 °F 66 °F (1987)
Min Temperature 16 °F 23 °F -5 °F (2001)
Degree Days  
Heating Degree Days 38    
Moisture  
Dew Point 21 °F    
Average Humidity 77    
Maximum Humidity 96    
Minimum Humidity 51    
Precipitation  
Precipitation 0.00 in - - ()
Sea Level Pressure  
Sea Level Pressure 29.60 in    
Wind  
Wind Speed 3 mph (NNE)    
Max Wind Speed 13 mph    
Max Gust Speed 18 mph    
Visibility 9 miles    
Events Snow    
Averages and records for this station are not official NWS values.
T = Trace of Precipitation, MM = Missing Value Source: NWS Daily Summary

Daily Weather History Graph

Daily Weather History Graph

Search for Another Location

Airport:

Trip Planner

Search our weather history database for the weather conditions in past years. The results will help you decide how hot, cold, wet, or windy it might be!

Date:

Astronomy

Feb. 09, 2013 Rise Set
Actual Time 6:59 AM MST 5:29 PM MST
Civil Twilight 6:31 AM MST 5:57 PM MST
Nautical Twilight 5:59 AM MST 6:29 PM MST
Astronomical Twilight 5:28 AM MST 7:01 PM MST
Moon 6:13 AM MST (2/9) 5:15 PM MST (2/9)
Length of Visible Light 11h 25m
Length of Day
10h 29m
Waning Crescent, 0% of the Moon is Illuminated
Feb 9
Waning Crescent
Feb 10
New
Feb 17
First Quarter
Feb 25
Full
Mar 4
Last Quarter

Hourly Weather History & Observations

Time (MST) Temp. Windchill Dew Point Humidity Pressure Visibility Wind Dir Wind Speed Gust Speed Precip Events Conditions
12:16 AM 20.7 °F - 13.6 °F 74% 29.69 in 10.0 mi Calm Calm - N/A   Clear
12:36 AM 20.3 °F 13.8 °F 14.0 °F 77% 29.69 in 10.0 mi SSW 4.6 mph - N/A   Clear
12:56 AM 22.1 °F - 13.6 °F 70% 29.68 in 10.0 mi Calm Calm - N/A   Clear
1:16 AM 21.2 °F - 13.6 °F 73% 29.67 in 10.0 mi Calm Calm - N/A   Clear
1:36 AM 20.1 °F - 12.7 °F 73% 29.67 in 10.0 mi Calm Calm - N/A   Clear
1:56 AM 19.6 °F - 13.1 °F 76% 29.67 in 10.0 mi Calm Calm - N/A   Clear
2:16 AM 20.7 °F 15.8 °F 13.5 °F 74% 29.67 in 10.0 mi SSW 3.5 mph - N/A   Clear
2:36 AM 18.1 °F - 12.4 °F 78% 29.67 in 10.0 mi Calm Calm - N/A   Clear
2:56 AM 19.8 °F - 12.4 °F 73% 29.66 in 10.0 mi Calm Calm - N/A   Clear
3:16 AM 18.5 °F - 12.9 °F 79% 29.67 in 10.0 mi Calm Calm - N/A   Clear
3:36 AM 18.0 °F - 12.0 °F 78% 29.67 in 10.0 mi Calm Calm - N/A   Clear
3:56 AM 16.9 °F - 11.1 °F 78% 29.67 in 10.0 mi Calm Calm - N/A   Clear
4:16 AM 18.0 °F - 11.7 °F 76% 29.68 in 10.0 mi Calm Calm - N/A   Clear
4:36 AM 18.5 °F 13.3 °F 12.2 °F 76% 29.69 in 10.0 mi SSW 3.5 mph - N/A   Clear
4:56 AM 18.0 °F - 12.7 °F 80% 29.69 in 10.0 mi Calm Calm - N/A   Clear
5:16 AM 17.6 °F - 12.0 °F 79% 29.68 in 10.0 mi Calm Calm - N/A   Clear
5:36 AM 18.9 °F - 12.4 °F 76% 29.69 in 10.0 mi Calm Calm - N/A   Clear
5:56 AM 17.1 °F 10.0 °F 12.4 °F 82% 29.69 in 10.0 mi South 4.6 mph - N/A   Clear
6:16 AM 20.1 °F 15.2 °F 13.3 °F 75% 29.69 in 10.0 mi South 3.5 mph - N/A   Clear
6:36 AM 19.6 °F - 12.7 °F 75% 29.69 in 10.0 mi Calm Calm - N/A   Clear
6:56 AM 19.4 °F 14.3 °F 13.5 °F 78% 29.69 in 10.0 mi SSW 3.5 mph - N/A   Clear
7:16 AM 18.7 °F 10.6 °F 13.8 °F 81% 29.69 in 10.0 mi SSW 5.8 mph - N/A   Clear
7:36 AM 20.1 °F - 14.7 °F 80% 29.69 in 10.0 mi Calm Calm - N/A   Clear
7:56 AM 22.5 °F 17.8 °F 16.5 °F 78% 29.69 in 10.0 mi SSW 3.5 mph - N/A   Clear
8:16 AM 25.7 °F - 18.5 °F 74% 29.68 in 10.0 mi Calm Calm - N/A   Clear
8:36 AM 29.1 °F - 18.9 °F 66% 29.67 in 10.0 mi Calm Calm - N/A   Clear
8:56 AM 31.1 °F 25.4 °F 19.0 °F 61% 29.67 in 10.0 mi North 5.8 mph - N/A   Clear
9:16 AM 32.0 °F 25.6 °F 19.0 °F 59% 29.66 in 10.0 mi North 6.9 mph - N/A   Clear
9:36 AM 32.5 °F 23.2 °F 19.8 °F 59% 29.65 in 10.0 mi NE 12.7 mph 17.3 mph N/A   Clear
9:56 AM 33.6 °F 25.6 °F 19.8 °F 57% 29.64 in 10.0 mi NNE 10.4 mph - N/A   Clear
10:16 AM 34.9 °F 26.6 °F 20.3 °F 55% 29.63 in 10.0 mi NNE 11.5 mph - N/A   Clear
10:36 AM 35.1 °F 26.4 °F 20.3 °F 55% 29.62 in 10.0 mi NNE 12.7 mph 17.3 mph N/A   Clear
10:56 AM 36.1 °F 28.7 °F 20.3 °F 53% 29.61 in 10.0 mi NNE 10.4 mph 16.1 mph N/A   Clear
11:16 AM 36.9 °F 29.1 °F 21.0 °F 53% 29.59 in 10.0 mi NNE 11.5 mph 16.1 mph N/A   Clear
11:36 AM 37.4 °F 30.8 °F 21.2 °F 52% 29.58 in 10.0 mi NNE 9.2 mph 18.4 mph N/A   Clear
11:56 AM 37.6 °F 30.5 °F 21.0 °F 51% 29.56 in 10.0 mi NNE 10.4 mph - N/A   Scattered Clouds
12:16 PM 36.0 °F 29.0 °F 21.0 °F 55% 29.56 in 10.0 mi North 9.2 mph - N/A   Mostly Cloudy
12:36 PM 36.0 °F 29.6 °F 21.0 °F 55% 29.55 in 10.0 mi NNE 8.1 mph - N/A   Overcast
12:56 PM 36.1 °F 29.9 °F 21.7 °F 56% 29.54 in 10.0 mi NE 8.1 mph - N/A   Overcast
1:16 PM 36.5 °F 31.0 °F 21.9 °F 56% 29.54 in 10.0 mi NNE 6.9 mph - N/A   Overcast
1:36 PM 36.7 °F 30.5 °F 22.1 °F 56% 29.54 in 10.0 mi North 8.1 mph - N/A   Overcast
1:56 PM 34.2 °F 27.5 °F 27.5 °F 77% 29.54 in 4.0 mi ENE 8.1 mph - N/A Snow Light Snow
2:16 PM 32.4 °F 27.9 °F 30.2 °F 92% 29.55 in 1.5 mi East 4.6 mph - N/A Snow Light Snow
2:36 PM 32.0 °F 25.6 °F 30.9 °F 96% 29.55 in 1.8 mi ENE 6.9 mph - N/A Snow Light Snow
2:56 PM 32.0 °F 26.4 °F 30.9 °F 96% 29.54 in 2.0 mi ENE 5.8 mph - N/A Snow Light Snow
3:16 PM 32.0 °F 26.4 °F 31.1 °F 96% 29.54 in 10.0 mi East 5.8 mph - N/A   Overcast
3:36 PM 32.0 °F 25.6 °F 30.9 °F 96% 29.54 in 10.0 mi NE 6.9 mph - N/A   Overcast
3:56 PM 32.2 °F 23.8 °F 30.7 °F 94% 29.52 in 10.0 mi NNE 10.4 mph - N/A   Overcast
4:16 PM 32.4 °F 26.9 °F 30.9 °F 94% 29.52 in 10.0 mi North 5.8 mph - N/A   Overcast
4:36 PM 32.2 °F 27.7 °F 30.4 °F 93% 29.53 in 10.0 mi NNE 4.6 mph - N/A   Overcast
4:56 PM 32.0 °F 26.4 °F 30.4 °F 94% 29.52 in 10.0 mi North 5.8 mph - N/A   Overcast
5:16 PM 32.0 °F 25.6 °F 30.2 °F 93% 29.52 in 10.0 mi North 6.9 mph - N/A   Overcast
5:36 PM 31.8 °F 25.4 °F 30.2 °F 94% 29.54 in 10.0 mi NNE 6.9 mph - N/A   Overcast
5:56 PM 31.5 °F 25.8 °F 30.2 °F 95% 29.54 in 10.0 mi NNE 5.8 mph - N/A   Overcast
6:36 PM 30.9 °F 26.2 °F 29.7 °F 95% 29.55 in 10.0 mi North 4.6 mph - N/A   Overcast
6:56 PM 30.6 °F 27.1 °F 29.1 °F 94% 29.54 in 7.0 mi North 3.5 mph - N/A Snow Light Snow
7:16 PM 30.2 °F - 29.1 °F 96% 29.54 in 2.5 mi Calm Calm - N/A Snow Light Snow
7:36 PM 30.0 °F 25.2 °F 29.1 °F 96% 29.54 in 1.8 mi North 4.6 mph - N/A Snow Light Snow
7:56 PM 29.7 °F 22.0 °F 28.6 °F 96% 29.55 in 3.0 mi North 8.1 mph - N/A Snow Light Snow
8:16 PM 29.3 °F 20.2 °F 25.7 °F 86% 29.55 in 5.0 mi NNE 10.4 mph - N/A Snow Light Snow
8:36 PM 28.4 °F 20.4 °F 23.5 °F 82% 29.54 in 10.0 mi NNE 8.1 mph - N/A   Overcast
8:56 PM 27.5 °F - 23.0 °F 83% 29.55 in 10.0 mi Calm Calm - N/A   Mostly Cloudy
9:16 PM 27.5 °F - 23.0 °F 83% 29.55 in 10.0 mi Calm Calm - N/A   Overcast
9:36 PM 27.5 °F - 23.0 °F 83% 29.55 in 10.0 mi Calm Calm - N/A   Overcast
9:56 PM 27.5 °F - 23.0 °F 83% 29.56 in 10.0 mi Calm Calm - N/A   Overcast
10:16 PM 27.5 °F - 23.2 °F 84% 29.55 in 10.0 mi Calm Calm - N/A   Overcast
10:36 PM 27.9 °F 22.6 °F 22.5 °F 80% 29.55 in 10.0 mi NNE 4.6 mph - N/A   Overcast
10:56 PM 27.5 °F - 22.1 °F 80% 29.56 in 10.0 mi Calm Calm - N/A   Overcast
11:16 PM 27.3 °F 23.4 °F 22.5 °F 82% 29.56 in 10.0 mi West 3.5 mph - N/A   Overcast
11:36 PM 25.3 °F 19.7 °F 21.4 °F 85% 29.56 in 10.0 mi SW 4.6 mph - N/A   Mostly Cloudy
11:56 PM 23.2 °F 18.7 °F 20.5 °F 89% 29.56 in 10.0 mi SSW 3.5 mph - N/A   Scattered Clouds